DW6610 Weather Reports


time (UTC)temp
F
wind
direction
speed
knots
gust
knots
rain 1hr
in
rain 24hr
in
rain mn
in
humidity
%
barometer
mb
20260510153551 82 60 0.9 3.5 0.00 0.00 0.00 69 1017.4
20260510153057 82 110 0.9 3.5 0.00 0.00 0.00 69 1017.4
20260510152551 82 34 0.9 2.6 0.00 0.00 0.00 68 1017.4
20260510152052 81 66 0.9 3.5 0.00 0.00 0.00 70 1017.3
20260510151603 82 128 1.7 3.5 0.00 0.00 0.00 70 1017.4
20260510151050 82 113 0.0 2.6 0.00 0.00 0.00 73 1017.4
20260510150548 80 153 1.7 3.5 0.00 0.00 0.00 72 1017.4
20260510145553 81 129 0.0 2.6 0.00 0.00 0.00 72 1017.4
20260510145052 80 0 0.0 3.5 0.00 0.00 0.00 76 1017.4
20260510144604 80 90 0.0 3.5 0.00 0.00 0.00 76 1017.4
20260510144052 79 90 0.9 3.5 0.00 0.00 0.00 78 1017.6
20260510143552 78 168 0.9 3.5 0.00 0.00 0.00 78 1017.5
20260510143053 78 134 0.9 3.5 0.00 0.00 0.00 78 1017.4
20260510142551 78 94 0.0 2.6 0.00 0.00 0.00 79 1017.4
20260510142052 78 182 0.0 1.7 0.00 0.00 0.00 77 1017.5
20260510141553 77 132 0.0 1.7 0.00 0.00 0.00 79 1017.3
20260510141049 77 131 0.9 2.6 0.00 0.00 0.00 82 1017.3
20260510140548 76 83 0.0 2.6 0.00 0.00 0.00 82 1017.0
20260510140053 75 0 0.0 2.6 0.00 0.00 0.00 82 1017.0
20260510135551 74 0 0.9 1.7 0.00 0.00 0.00 84 1017.1
20260510135052 74 63 0.0 3.5 0.00 0.00 0.00 83 1016.9
20260510134556 73 146 0.0 3.5 0.00 0.00 0.00 85 1016.8
20260510134052 72 100 1.7 3.5 0.00 0.00 0.00 84 1017.1
20260510133553 72 123 0.0 1.7 0.00 0.00 0.00 86 1017.2
20260510133050 72 100 0.0 2.6 0.00 0.00 0.00 87 1017.2
20260510132548 71 101 0.9 2.6 0.00 0.00 0.00 87 1017.2
20260510132052 71 128 0.0 0.9 0.00 0.00 0.00 88 1017.0
20260510131553 70 114 0.0 0.9 0.00 0.00 0.00 88 1016.8
20260510131053 70 114 0.0 0.9 0.00 0.00 0.00 90 1016.8
20260510130552 69 0 0.0 0.9 0.00 0.00 0.00 93 1016.8
20260510130052 68 0 0.0 0.9 0.00 0.00 0.00 94 1016.9
20260510125551 67 0 0.0 0.9 0.00 0.00 0.00 95 1016.9
20260510125051 66 53 0.0 0.9 0.00 0.00 0.00 97 1016.9
20260510124557 66 0 0.0 0.9 0.00 0.00 0.00 99 1016.8
20260510124051 65 0 0.0 0.9 0.00 0.00 0.00 100 1016.7
20260510123548 64 0 0.0 0.9 0.00 0.00 0.00 100 1016.6
20260510123053 63 0 0.0 0.9 0.00 0.00 0.00 100 1016.6
20260510122549 62 0 0.0 0.9 0.00 0.00 0.00 100 1016.6
20260510122048 61 0 0.0 0.0 0.00 0.00 0.00 100 1016.5
20260510121557 60 0 0.0 0.0 0.00 0.00 0.00 100 1016.5
20260510121049 59 0 0.0 0.0 0.00 0.00 0.00 99 1016.4
20260510120550 58 0 0.0 0.0 0.00 0.00 0.00 99 1016.5
20260510120051 58 0 0.0 0.0 0.00 0.00 0.00 99 1016.6
20260510115549 57 0 0.0 0.9 0.00 0.00 0.00 99 1016.5
20260510115052 57 0 0.0 0.9 0.00 0.00 0.00 99 1016.5
20260510114605 57 0 0.0 0.9 0.00 0.00 0.00 99 1016.4
20260510114049 56 0 0.0 0.9 0.00 0.00 0.00 99 1016.4
20260510113552 56 0 0.0 0.9 0.00 0.00 0.00 99 1016.5
20260510113054 56 0 0.0 0.9 0.00 0.00 0.00 98 1016.4
20260510112551 56 0 0.0 0.9 0.00 0.00 0.00 98 1016.3
20260510112048 56 0 0.0 0.9 0.00 0.00 0.00 98 1016.1
20260510111551 56 0 0.0 0.9 0.00 0.00 0.00 98 1016.0
20260510111048 56 0 0.0 0.0 0.00 0.00 0.00 98 1016.0
20260510110548 56 0 0.0 0.0 0.00 0.00 0.00 98 1015.9
20260510110056 55 0 0.0 0.0 0.00 0.00 0.00 98 1015.9
20260510105552 56 0 0.0 0.0 0.00 0.00 0.00 98 1015.8
20260510105055 55 0 0.0 0.0 0.00 0.00 0.00 98 1015.6
20260510104608 56 0 0.0 0.0 0.00 0.00 0.00 97 1015.5
20260510104054 56 0 0.0 0.0 0.00 0.00 0.00 98 1015.5
20260510103551 56 0 0.0 0.0 0.00 0.00 0.00 98 1015.3
20260510103059 56 0 0.0 0.0 0.00 0.00 0.00 98 1015.3
20260510102552 56 0 0.0 0.0 0.00 0.00 0.00 98 1015.3
20260510102052 56 0 0.0 0.0 0.00 0.00 0.00 98 1015.3
20260510101556 56 0 0.0 0.0 0.00 0.00 0.00 97 1015.1
20260510101048 56 0 0.0 0.0 0.00 0.00 0.00 97 1015.1
20260510100548 56 0 0.0 0.0 0.00 0.00 0.00 97 1015.0
20260510100058 56 0 0.0 0.9 0.00 0.00 0.00 97 1015.0
20260510095548 56 0 0.0 0.9 0.00 0.00 0.00 97 1015.0
20260510095048 56 0 0.0 0.9 0.00 0.00 0.00 97 1015.0
20260510094553 56 0 0.0 0.0 0.00 0.00 0.00 97 1014.9
20260510094056 56 0 0.0 0.0 0.00 0.00 0.00 97 1014.8
20260510093553 56 0 0.0 0.0 0.00 0.00 0.00 97 1014.7
20260510093057 56 0 0.0 0.0 0.00 0.00 0.00 97 1014.7
20260510092553 56 0 0.0 0.0 0.00 0.00 0.00 97 1014.7
20260510092054 56 0 0.0 0.0 0.00 0.00 0.00 97 1014.5
20260510091552 56 0 0.0 0.0 0.00 0.00 0.00 97 1014.3
20260510091051 56 0 0.0 0.0 0.00 0.00 0.00 97 1014.2
20260510090551 56 0 0.0 0.0 0.00 0.00 0.00 97 1014.2
20260510090053 56 0 0.0 0.0 0.00 0.00 0.00 97 1014.2
20260510085551 55 0 0.0 0.0 0.00 0.00 0.00 96 1014.1
20260510085050 55 0 0.0 0.0 0.00 0.00 0.00 96 1014.0
20260510084558 56 0 0.0 0.0 0.00 0.00 0.00 95 1014.1
20260510084050 56 0 0.0 0.0 0.00 0.00 0.00 96 1014.2
20260510083551 56 0 0.0 0.0 0.00 0.00 0.00 96 1014.2
20260510083100 56 0 0.0 0.0 0.00 0.00 0.00 95 1014.2
20260510082549 56 0 0.0 0.0 0.00 0.00 0.00 96 1014.2
20260510082050 56 0 0.0 0.0 0.00 0.00 0.00 96 1014.0
20260510081553 56 0 0.0 0.0 0.00 0.00 0.00 96 1014.0
20260510081051 56 0 0.0 0.0 0.00 0.00 0.00 95 1014.0
20260510080551 56 0 0.0 0.0 0.00 0.00 0.00 95 1013.9
20260510080052 56 0 0.0 0.0 0.00 0.00 0.00 95 1013.9
20260510075551 56 0 0.0 0.0 0.00 0.00 0.00 95 1013.9
20260510075053 56 0 0.0 0.9 0.00 0.00 0.00 95 1013.8
20260510074616 56 0 0.0 0.9 0.00 0.00 0.00 95 1013.9
20260510074051 56 0 0.0 0.0 0.00 0.00 0.00 95 1013.9
20260510073550 56 0 0.0 0.0 0.00 0.00 0.00 95 1013.9
20260510073056 56 0 0.0 0.0 0.00 0.00 0.00 95 1013.9
20260510072550 56 0 0.0 0.0 0.00 0.00 0.00 95 1013.9
20260510072050 56 0 0.0 0.0 0.00 0.00 0.00 94 1013.9
20260510071600 56 0 0.0 0.0 0.00 0.00 0.00 94 1013.9
20260510071052 56 0 0.0 0.0 0.00 0.00 0.00 93 1013.8
20260510070550 56 0 0.0 0.0 0.00 0.00 0.00 93 1013.9
20260510070053 56 0 0.0 0.0 0.00 0.00 0.00 93 1014.0
20260510065551 56 0 0.0 0.0 0.00 0.00 0.00 93 1014.0
20260510065051 56 0 0.0 0.0 0.00 0.00 0.00 93 1014.0
20260510064607 56 0 0.0 0.0 0.00 0.00 0.00 93 1014.0
20260510064049 56 0 0.0 0.0 0.00 0.00 0.00 93 1013.9
20260510063551 56 0 0.0 0.0 0.00 0.00 0.00 93 1014.0
20260510063101 57 0 0.0 0.0 0.00 0.00 0.00 93 1013.8
20260510062551 57 0 0.0 0.0 0.00 0.00 0.00 93 1013.7
20260510062050 57 0 0.0 0.9 0.00 0.00 0.00 93 1013.6
20260510061554 57 0 0.0 1.7 0.00 0.00 0.00 93 1013.6
20260510061051 57 0 0.0 1.7 0.00 0.00 0.00 93 1013.6
20260510060550 57 38 0.0 1.7 0.00 0.00 0.00 93 1013.6
20260510060057 57 0 0.0 0.0 0.00 0.00 0.00 92 1013.5
20260510055549 57 0 0.0 0.0 0.00 0.00 0.00 92 1013.4
20260510055049 57 0 0.0 0.0 0.00 0.00 0.00 92 1013.5
20260510054554 58 0 0.0 0.0 0.00 0.00 0.00 92 1013.5
20260510054052 58 0 0.0 0.0 0.00 0.00 0.00 91 1013.4
20260510053552 58 0 0.0 0.9 0.00 0.00 0.00 91 1013.5
20260510053053 58 0 0.0 0.9 0.00 0.00 0.00 91 1013.4
20260510052551 58 0 0.0 0.9 0.00 0.00 0.00 90 1013.5
20260510052051 58 0 0.0 0.9 0.00 0.00 0.00 90 1013.5
20260510051558 58 0 0.0 0.9 0.00 0.00 0.00 90 1013.5
20260510051051 58 0 0.0 0.9 0.00 0.00 0.00 90 1013.4
20260510050552 58 0 0.0 0.9 0.00 0.00 0.00 90 1013.5
20260510050059 59 0 0.0 1.7 0.00 0.00 0.00 90 1013.5
20260510045552 59 0 0.0 1.7 0.00 0.00 0.00 90 1013.4
20260510045052 59 108 0.0 1.7 0.00 0.00 0.00 91 1013.5
20260510044552 59 0 0.0 0.9 0.00 0.00 0.00 91 1013.5
20260510044053 59 109 0.0 0.9 0.00 0.00 0.00 91 1013.5
20260510043549 59 0 0.0 0.9 0.00 0.00 0.00 91 1013.4
20260510043059 59 109 0.0 0.9 0.00 0.00 0.00 91 1013.4
20260510042551 59 0 0.0 0.9 0.00 0.00 0.00 92 1013.4
20260510042051 59 0 0.0 0.9 0.00 0.00 0.00 92 1013.4
20260510041609 59 109 0.0 0.9 0.00 0.00 0.00 91 1013.5
20260510041053 59 0 0.0 0.9 0.00 0.00 0.00 91 1013.6
20260510040551 59 0 0.0 0.9 0.00 0.00 0.00 90 1013.7
20260510040053 59 0 0.0 0.0 0.00 0.00 0.00 90 1013.6
20260510035548 59 0 0.0 0.0 0.00 0.00 0.00 89 1013.7
20260510035051 60 0 0.0 0.0 0.00 0.00 0.00 88 1013.6
20260510034554 60 0 0.0 0.0 0.00 0.00 0.00 88 1013.6
20260510034051 60 0 0.0 0.0 0.00 0.00 0.00 87 1013.5
20260510033552 60 0 0.0 0.9 0.00 0.00 0.00 86 1013.6
20260510033059 61 0 0.0 0.9 0.00 0.00 0.00 85 1013.6
20260510032551 61 0 0.0 0.9 0.00 0.00 0.00 85 1013.6
20260510032054 61 0 0.0 0.9 0.00 0.00 0.00 84 1013.6
20260510031601 61 0 0.0 0.9 0.00 0.00 0.00 84 1013.6
20260510031052 61 0 0.0 0.0 0.00 0.00 0.00 83 1013.6
20260510030551 62 0 0.0 0.0 0.00 0.00 0.00 82 1013.6
20260510030058 62 0 0.0 0.0 0.00 0.00 0.00 81 1013.6
20260510025551 62 0 0.0 0.9 0.00 0.00 0.00 80 1013.5
20260510025050 62 0 0.0 0.9 0.00 0.00 0.00 79 1013.5
20260510024603 63 0 0.0 0.9 0.00 0.00 0.00 79 1013.5
20260510024051 63 0 0.0 0.9 0.00 0.00 0.00 78 1013.5
20260510023551 63 0 0.0 0.9 0.00 0.00 0.00 77 1013.4
20260510023054 64 0 0.0 0.9 0.00 0.00 0.00 77 1013.2
20260510022555 64 0 0.0 0.0 0.00 0.00 0.00 77 1013.1
20260510022050 64 0 0.0 0.9 0.00 0.00 0.00 77 1013.0
20260510021559 65 0 0.0 0.9 0.00 0.00 0.00 77 1013.0
20260510021054 65 0 0.0 0.9 0.00 0.00 0.00 78 1012.9
20260510020550 65 0 0.0 0.0 0.00 0.00 0.00 77 1012.9
20260510020100 66 0 0.0 0.0 0.00 0.00 0.00 76 1012.8
20260510015551 66 0 0.0 0.9 0.00 0.00 0.00 75 1012.7
20260510015050 67 0 0.0 0.9 0.00 0.00 0.00 74 1012.6
20260510014554 68 0 0.0 0.9 0.00 0.00 0.00 72 1012.4
20260510014050 68 0 0.0 0.9 0.00 0.00 0.00 66 1012.4
20260510013551 69 0 0.0 0.9 0.00 0.00 0.00 64 1012.3
20260510013108 69 0 0.0 0.9 0.00 0.00 0.00 61 1012.2
20260510012552 69 119 0.0 0.9 0.00 0.00 0.00 63 1012.2
20260510012051 69 0 0.0 0.0 0.00 0.00 0.00 64 1012.1
20260510011557 70 0 0.0 0.0 0.00 0.00 0.00 65 1012.0
20260510011053 70 0 0.0 0.0 0.00 0.00 0.00 67 1012.0
20260510010550 71 0 0.0 0.0 0.00 0.00 0.00 66 1012.0
20260510010112 72 0 0.0 0.0 0.00 0.00 0.00 63 1011.9
20260510005550 72 0 0.0 0.0 0.00 0.00 0.00 56 1011.8
20260510005051 73 0 0.0 0.0 0.00 0.00 0.00 56 1011.7
20260510004559 74 0 0.0 0.0 0.00 0.00 0.00 55 1011.7
20260510004050 75 0 0.0 0.0 0.00 0.00 0.00 51 1011.7
20260510003550 76 0 0.0 0.0 0.00 0.00 0.00 48 1011.6
20260510003055 77 0 0.0 0.0 0.00 0.00 0.00 48 1011.5
20260510002553 78 0 0.0 0.9 0.00 0.00 0.00 47 1011.5
20260510002049 79 0 0.0 0.9 0.00 0.00 0.00 46 1011.4
20260510001553 80 0 0.0 0.9 0.00 0.00 0.00 44 1011.4
20260510001050 81 0 0.0 0.9 0.00 0.00 0.00 41 1011.3
20260510000551 83 0 0.0 0.9 0.00 0.00 0.00 39 1011.3
20260510000121 84 120 0.0 1.7 0.00 0.00 0.00 37 1011.3
20260509235550 84 0 0.0 1.7 0.00 0.00 0.00 38 1011.3
20260509235050 84 120 0.0 1.7 0.00 0.00 0.00 38 1011.3
20260509234604 84 120 0.0 1.7 0.00 0.00 0.00 37 1011.2
20260509234056 84 0 0.0 0.9 0.00 0.00 0.00 39 1011.1
20260509233550 83 0 0.0 1.7 0.00 0.00 0.00 33 1011.2
20260509233059 84 0 0.0 1.7 0.00 0.00 0.00 36 1011.2
20260509232550 84 106 0.0 1.7 0.00 0.00 0.00 38 1011.2
20260509232051 84 97 0.0 1.7 0.00 0.00 0.00 37 1011.2
20260509231555 84 152 0.9 1.7 0.00 0.00 0.00 36 1011.1
20260509231050 85 84 0.0 1.7 0.00 0.00 0.00 36 1011.1
20260509230549 85 90 0.9 1.7 0.00 0.00 0.00 38 1011.0
20260509230105 84 0 0.0 1.7 0.00 0.00 0.00 36 1010.9
20260509225550 85 134 0.9 1.7 0.00 0.00 0.00 36 1010.9
20260509225050 85 144 0.0 2.6 0.00 0.00 0.00 36 1010.9
20260509224609 85 197 0.9 2.6 0.00 0.00 0.00 35 1010.8
20260509224053 86 117 0.0 2.6 0.00 0.00 0.00 36 1010.8
20260509223551 85 0 0.9 2.6 0.00 0.00 0.00 37 1010.8
20260509223107 85 100 0.0 3.5 0.00 0.00 0.00 38 1010.8
20260509222552 85 107 1.7 4.3 0.00 0.00 0.00 39 1010.9
20260509222050 84 127 0.9 4.3 0.00 0.00 0.00 39 1010.9
20260509221612 85 170 0.9 4.3 0.00 0.00 0.00 36 1011.0
20260509221052 85 68 0.0 2.6 0.00 0.00 0.00 36 1011.0
20260509220553 84 0 0.9 3.5 0.00 0.00 0.00 34 1011.0
20260509220105 85 154 0.9 3.5 0.00 0.00 0.00 38 1010.9
20260509215550 85 143 0.9 3.5 0.00 0.00 0.00 36 1011.0
20260509215051 85 120 0.9 2.6 0.00 0.00 0.00 37 1010.9
20260509214553 85 73 0.9 2.6 0.00 0.00 0.00 39 1010.9
20260509214052 84 127 1.7 3.5 0.00 0.00 0.00 34 1011.0
20260509213550 84 91 0.9 4.3 0.00 0.00 0.00 38 1011.0
20260509213057 84 126 0.9 4.3 0.00 0.00 0.00 39 1011.0
20260509212549 84 181 0.9 3.5 0.00 0.00 0.00 38 1011.1
20260509212053 84 195 0.9 3.5 0.00 0.00 0.00 36 1011.0
20260509211553 85 163 0.9 3.5 0.00 0.00 0.00 37 1011.0
20260509211052 85 180 0.9 2.6 0.00 0.00 0.00 35 1011.2
20260509210550 85 90 0.9 4.3 0.00 0.00 0.00 38 1011.2
20260509210100 84 135 0.9 4.3 0.00 0.00 0.00 37 1011.1
20260509205552 84 120 1.7 4.3 0.00 0.00 0.00 40 1011.1
20260509205050 84 207 0.9 4.3 0.00 0.00 0.00 37 1011.1
20260509204600 85 153 0.9 4.3 0.00 0.00 0.00 44 1011.0
20260509204052 84 122 0.9 4.3 0.00 0.00 0.00 39 1011.1
20260509203551 83 163 1.7 4.3 0.00 0.00 0.00 41 1011.0
20260509203055 84 216 0.9 4.3 0.00 0.00 0.00 40 1011.1
20260509202552 84 117 0.9 4.3 0.00 0.00 0.00 39 1011.2
20260509202053 85 84 0.9 2.6 0.00 0.00 0.00 40 1011.1
20260509201551 84 129 0.9 6.1 0.00 0.00 0.00 37 1011.1
20260509201051 84 114 1.7 6.1 0.00 0.00 0.00 40 1011.2
20260509200551 84 82 1.7 6.1 0.00 0.00 0.00 45 1011.2
20260509200104 83 90 0.9 3.5 0.00 0.00 0.00 42 1011.2
20260509195550 84 139 1.7 4.3 0.00 0.00 0.00 37 1011.4
20260509195049 83 153 0.9 4.3 0.00 0.00 0.00 40 1011.3
20260509194555 83 101 1.7 5.2 0.00 0.00 0.00 40 1011.4
20260509194051 84 204 0.9 6.1 0.00 0.00 0.00 46 1011.3
20260509193554 83 70 2.6 6.1 0.00 0.00 0.00 47 1011.4
20260509193101 84 165 0.9 5.2 0.00 0.00 0.00 46 1011.4
20260509192550 84 207 0.9 5.2 0.00 0.00 0.00 44 1011.4
20260509192052 83 92 2.6 4.3 0.00 0.00 0.00 45 1011.5
20260509191613 84 199 0.9 3.5 0.00 0.00 0.00 42 1011.5
20260509191050 84 86 0.9 3.5 0.00 0.00 0.00 48 1011.5
20260509190550 84 77 0.9 2.6 0.00 0.00 0.00 43 1011.5
20260509190112 84 164 0.9 4.3 0.00 0.00 0.00 45 1011.5
20260509185550 83 103 2.6 4.3 0.00 0.00 0.00 41 1011.6
20260509185050 84 118 1.7 3.5 0.00 0.00 0.00 41 1011.5
20260509184555 84 0 0.0 2.6 0.00 0.00 0.00 52 1011.5
20260509184051 84 78 0.9 4.3 0.00 0.00 0.00 49 1011.7
20260509183551 83 95 1.7 4.3 0.00 0.00 0.00 51 1011.8
20260509183105 83 115 0.9 4.3 0.00 0.00 0.00 47 1011.8
20260509182551 84 71 0.9 3.5 0.00 0.00 0.00 52 1011.8
20260509182050 84 126 0.9 3.5 0.00 0.00 0.00 47 1011.8
20260509181553 83 82 0.9 3.5 0.00 0.00 0.00 51 1011.9
20260509181051 84 39 0.9 2.6 0.00 0.00 0.00 50 1012.0
20260509180550 84 96 0.9 2.6 0.00 0.00 0.00 52 1012.0
20260509180057 83 93 0.9 5.2 0.00 0.00 0.00 56 1012.1
20260509175550 83 101 1.7 5.2 0.00 0.00 0.00 57 1012.1
20260509175050 82 48 1.7 4.3 0.00 0.00 0.00 54 1012.0
20260509174554 82 83 0.9 3.5 0.00 0.00 0.00 49 1012.0
20260509174048 82 120 0.9 3.5 0.00 0.00 0.00 52 1012.1
20260509173551 82 78 0.0 3.5 0.00 0.00 0.00 52 1012.0
20260509173101 82 150 0.9 3.5 0.00 0.00 0.00 49 1012.0
20260509172554 82 161 0.9 2.6 0.00 0.00 0.00 56 1012.0
20260509172052 82 122 0.9 2.6 0.00 0.00 0.00 52 1012.0
20260509171606 82 120 0.9 4.3 0.00 0.00 0.00 56 1012.0
20260509171051 81 117 1.7 4.3 0.00 0.00 0.00 54 1012.0
20260509170551 81 117 1.7 4.3 0.00 0.00 0.00 57 1012.1
20260509170057 81 189 1.7 3.5 0.00 0.00 0.00 58 1012.1
20260509165552 81 63 0.9 3.5 0.00 0.00 0.00 54 1012.2
20260509165051 82 116 0.9 3.5 0.00 0.00 0.00 54 1012.2
20260509164554 81 0 0.9 3.5 0.00 0.00 0.00 59 1012.2
20260509164055 81 70 1.7 3.5 0.00 0.00 0.00 59 1012.1
20260509163553 80 102 0.9 3.5 0.00 0.00 0.00 59 1012.1
20260509163101 80 130 0.9 4.3 0.00 0.00 0.00 60 1012.2
20260509162553 80 101 0.9 4.3 0.00 0.00 0.00 60 1012.1
20260509162051 80 205 0.9 4.3 0.00 0.00 0.00 58 1012.0
20260509161555 80 72 0.9 4.3 0.00 0.00 0.00 59 1012.0
20260509161052 79 124 0.9 4.3 0.00 0.00 0.00 61 1012.0
20260509160553 79 153 1.7 4.3 0.00 0.00 0.00 60 1012.0
20260509160050 78 214 0.0 3.5 0.00 0.00 0.00 59 1011.9
20260509155552 78 154 0.9 3.5 0.00 0.00 0.00 62 1012.0
20260509155052 78 144 1.7 5.2 0.00 0.00 0.00 59 1011.9
20260509154558 78 173 0.9 5.2 0.00 0.00 0.00 59 1011.7
20260509154053 78 172 1.7 3.5 0.00 0.00 0.00 57 1011.7